Miscellaneous Local Product
Issued by NWS Hastings, NE

Home | Current Version | Previous Version | Graphics & Text | Print | Product List | Glossary On
Versions: 1 2 3 4 5 6 7 8 9 10 11 12 13 14 15 16 17 18 19 20 21 22 23 24 25 26 27 28 29 30 31 32 33 34 35 36 37 38 39 40 41 42 43 44 45 46 47 48 49 50
000
AXUS43 KGID 060502
MISGRI

GID CWA HOURLY WEATHER ROUNDUP
NATIONAL WEATHER SERVICE HASTINGS NE
1200 AM CDT MON JUL 06 2015

NOTE: "FAIR" INDICATES FEW OR NO CLOUDS BELOW 12,000 FEET WITH NO
SIGNIFICANT WEATHER AND/OR OBSTRUCTIONS TO VISIBILITY.

...SOUTH CENTRAL NEBRASKA...

CITY           SKY/WX    TMP DP  RH WIND       PRES   REMARKS
GRAND ISLAND   CLOUDY    83  62  49 S16       29.76F
HASTINGS       CLOUDY    85  62  46 S9G18     29.78R
KEARNEY        CLOUDY    82  61  47 S28       29.75F
ORD            CLOUDY    78  64  61 NW22G28   29.86R
YORK           CLOUDY    81  72  74 S12       29.77R
AURORA         CLOUDY    83  64  52 S12G18    29.77S
LEXINGTON      LGT RAIN  80  60  51 SW12      29.82R
HOLDREGE       LGT RAIN  81  62  53 SW7       29.81R
HEBRON         CLOUDY    83  62  48 S9        29.79S

...NEBRASKA PANHANDLE...

CITY           SKY/WX    TMP DP  RH WIND       PRES   REMARKS
CHADRON        LGT RAIN  62  60  93 N17G25    30.02S
ALLIANCE       CLOUDY    64  62  93 N12       30.00R
SCOTTSBLUFF    CLOUDY    65  63  93 N21G32    30.03R
SIDNEY         LGT RAIN  65  62  90 NW15      30.00S

...WESTERN AND NORTH CENTRAL NEBRASKA...

CITY           SKY/WX    TMP DP  RH WIND       PRES   REMARKS
VALENTINE      TSTM      66  64  93 N26G39    29.94R FOG
AINSWORTH      RAIN      67  67 100 NW14G25   29.91F
ONEILL         TSTM      72  69  91 N17G30    29.82R
BROKEN BOW     CLOUDY    76  64  66 NW16G25   29.83R
IMPERIAL       CLOUDY    71  63  75 N21G29    29.90R
NORTH PLATTE   LGT RAIN  70  66  87 N15       29.87R
MCCOOK         CLOUDY    76  64  66 E3        29.81R

...EASTERN NEBRASKA...

CITY           SKY/WX    TMP DP  RH WIND       PRES   REMARKS
NORFOLK        CLOUDY    81  72  74 S17G26    29.75R
SO SIOUX CITY  CLOUDY    81  72  74 SE13      29.74F
TEKAMAH        CLOUDY    83  73  72 S16       29.78R
COLUMBUS       CLOUDY    81  70  69 SE12G21   29.76R
ALBION         CLOUDY    82  69  64 SE10      29.77R
OMAHA EPPLEY   TSTM      79  73  82 S15G24    29.81F
OFFUTT AFB     TSTM      77  74  88 NW7       29.82S
MILLARD        CLOUDY    79  71  77 E7        29.81R
LINCOLN        CLOUDY    83  71  67 S17G23    29.78F
NEBRASKA CITY  CLOUDY    82  72  72 S14G20    29.83S
BEATRICE       CLOUDY    83  71  65 S15G21    29.81R
FALLS CITY     CLOUDY    83  74  74 S14       29.82F

...NORTHERN KANSAS...

CITY           SKY/WX    TMP DP  RH WIND       PRES   REMARKS
GOODLAND       CLOUDY    68  63  84 NE8       29.89F
HILL CITY      CLOUDY    86  62  44 S18G28    29.80S
NORTON         CLEAR     82  55  39 NW8       29.81R
PHILLIPSBURG   CLEAR     90  63  40 S12G21    29.79R HX  90
SMITH CENTER   CLEAR     84  61  45 S16G24    29.80F
HAYS           MOCLDY    82  63  51 S17G25    29.82F
RUSSELL        MOCLDY    82  64  54 S16       29.82R
CONCORDIA      CLOUDY    84  64  50 S20       29.81S
SALINA         CLOUDY    87  68  52 S18G28    29.84R HX  90
TOPEKA         PTCLDY    83  74  74 S12       29.87R



USA.gov is the U.S. government's official web portal to all federal, state and local government web resources and services.